Location: Unspecified
(0.0000°N, 0.0000°E)
Time: 22:26:10
(UTC+00:00)

S-56A Canister/Altair - Pass Details

Date: 23 April 2019
Orbit: 633 x 2499 km, 38.9° (Epoch: 24 May)

Event Time Altitude Azimuth Distance (km) Brightness Sun altitude
Exits shadow 04:03:29 - 189° (S) 4,278 11.1 -28.0°
Reaches altitude 10° 04:06:50 10° 172° (S) 3,872 11.0 -27.2°
Maximum altitude 04:12:37 16° 138° (SE) 3,831 11.3 -25.8°
Drops below altitude 10° 04:19:24 10° 106° (ESE) 4,704 12.3 -24.1°
Sets 04:25:53 0° 87° (E) 5,987 13.5 -22.6°
